User: anonymous   Login
Location: Unspecified
(0.0000°N, 0.0000°E)
Time: 20:49:30
(UTC+00:00)
Language:

FORMOSAT 3C - Orbit

View from above orbital plane
View from above orbital plane
View from above satellite
View from above satellite

Ground track
Ground track

The orbit data is extracted from the following two-line orbital elements,

1 29049U 06011C   18141.49817533  .00000089  00000-0  51686-4 0  9994
2 29049  72.0198 295.9933 0036484 278.7041  80.9964 14.28644902631340
Epoch (UTC): 21 May 2018 11:57:22
Eccentricity: 0.0036484
inclination: 72.0198°
perigee height: 770 km
apogee height: 822 km
right ascension of ascending node: 295.9933°
argument of perigee: 278.7041°
revolutions per day: 14.28644902
mean anomaly at epoch: 80.9964°
orbit number at epoch: 63134

The dashed part of the orbit path shows where the satellite is in the earth's shadow,  

DLR